Regional Weather Roundup
Issued by NWS

Home | Current Version | Previous Version | Text Only | Print | Product List | Glossary On
Versions: 1 2 3 4 5 6 7 8 9 10 11 12 13 14 15 16 17 18 19 20 21 22 23 24 25 26 27 28 29 30 31 32 33 34 35 36 37 38 39 40 41 42 43 44 45 46 47 48 49 50
000
ASUS43 KDTX 131901
RWRMI
MICHIGAN HOURLY REGIONAL WEATHER ROUNDUP
NATIONAL WEATHER SERVICE DETROIT/PONTIAC MI
200 PM EST WED DEC 13 2017

NOTE: "FAIR" INDICATES FEW OR NO CLOUDS BELOW 12,000 FEET WITH NO
SIGNIFICANT WEATHER AND/OR OBSTRUCTION TO VISIBILITY.

MIZ047>049-052>055-059>063-066>070-074>076-081>083-132000-
SOUTHEAST LOWER MICHIGAN

CITY           SKY/WX    TMP DP  RH WIND       PRES   REMARKS
ADRIAN         CLOUDY    21  16  81 S14       29.52F WCI   8
ALMA           LGT SNOW  19  17  92 E10       29.50F VSB 3/4 WCI   8
ANN ARBOR      LGT SNOW  18  15  88 E9        29.53F FOG     WCI   7
BAD AXE        LGT SNOW  17  11  80 E6        29.61F VSB 1   WCI   8
CARO           LGT SNOW  18  15  86 SE8       29.58F VSB 1   WCI   8
DETROIT CITY   LGT SNOW  21  16  81 S9        29.59F WCI  11
DETROIT        LGT SNOW  22  16  78 S8        29.59F WCI  12
FLINT          LGT SNOW  19  15  84 SE10      29.55F VSB 3/4 WCI   7
GROSSE ILE     LGT SNOW  22  17  80 S15       29.57F WCI   9
HILLSDALE      CLOUDY    23  12  63 SE13G20   29.44F WCI  11
HOWELL         LGT SNOW  19  15  87 SE10      29.51F WCI   7

CITY           SKY/WX    TMP DP  RH WIND       PRES   REMARKS
JACKSON        CLOUDY    20  13  74 SE10      29.48F WCI   9
LAMBERTVILLE   CLOUDY    21  16  81 SE8       29.55F WCI  12
LANSING        CLOUDY    19  14  81 SE13      29.49F WCI   6
LAPEER         LGT SNOW  19  15  82 SE5       29.57F WCI  13
MASON          CLOUDY    20  12  71 SE10      29.49F WCI   9
MT. CLEMENS    LGT SNOW  22  20  93 S12       29.57F FOG     WCI  10
PONTIAC        LGT SNOW  19  15  84 SE10      29.54F FOG     WCI   7
PORT HOPE        N/A     17  11  77 S5        29.61F WCI  10
PORT HURON     LGT SNOW  19  14  79 E7        29.61F WCI  10
TRI CITIES     SNOW      19  17  92 E12       29.57F VSB 1/2 WCI   7
MIDLAND        LGT SNOW  19  16  86 E8        29.56F VSB 3/4 WCI   9
TROY           LGT SNOW  22  17  81 S6        29.59F WCI  14
SAGINAW HB     SNOW      19  18  93 E8        29.56  VSB<1/4 WCI   9
$$
MIZ043>046-050>051-056>058-064>065-071>073-077>080-132000-
SOUTHWEST LOWER MICHIGAN

CITY           SKY/WX    TMP DP  RH WIND       PRES   REMARKS
BATTLE CREEK   CLOUDY    24  13  62 SE10      29.40F WCI  14
BENTON HARBOR  CLOUDY    29  13  51 SE13      29.35F WCI  19
BIG RAPIDS     SNOW      17  14  86 SE12G17   29.43F VSB<1/4 WCI   5
COLDWATER      CLOUDY    25  13  59 SE12G21   29.42F WCI  15
FREMONT        LGT SNOW  19  17  90 E10G17    29.40F VSB 1   WCI   7
HOLLAND        CLOUDY    25  14  63 SE15      29.37F WCI  13
GRAND RAPIDS   LGT SNOW  20  15  81 E12G24    29.42F VSB 1   WCI   8
IONIA          CLOUDY    20  14  78 E17       29.43F WCI   5
KALAMAZOO      CLOUDY    25  13  60 S10       29.41F WCI  15
LUDINGTON      HVY SNOW  19  17  89 E10G17    29.41F VSB 1/4 WCI   8
MARSHALL       CLOUDY    23  14  68 SE12G17   29.42F WCI  11
MOUNT PLEASANT LGT SNOW  19  15  84 E12       29.51F VSB 3/4 WCI   7
MUSKEGON       CLOUDY    22  14  71 E15       29.38F WCI   9
SOUTH HAVEN    CLOUDY    29  13  50 SE12      29.36F WCI  20
$$
MIZ016>042-132000-
NORTHERN LOWER MICHIGAN

CITY           SKY/WX    TMP DP  RH WIND       PRES   REMARKS
ALPENA         CLOUDY    16   8  71 E6        29.63F WCI   7
BEAVER ISLAND  LGT SNOW  17  14  86 E13G21    29.58F WCI   4
BELLAIRE       LGT SNOW  16  13  89 NE6       29.55F WCI   7
CADILLAC       LGT SNOW  16  12  86 E12G18    29.42F VSB 1   WCI   2
CHARLEVOIX     LGT SNOW  16  12  82 E14G20    29.59F WCI   2
FRANKFORT      SNOW      20  17  86 E10       29.45F VSB 1/2 WCI   9
GAYLORD        LGT SNOW  11   7  84 E6        29.51F VSB 3/4 WCI   1
GRAYLING       LGT SNOW  14   9  81 E10       29.52F VSB 3/4 WCI   1
HARBOR SPRINGS LGT SNOW  14   8  78 E12       29.58F WCI   0
HOUGHTON LAKE  LGT SNOW  15  10  80 E13       29.51F VSB 3/4 WCI   1
MANISTEE       SNOW      19  16  88 E15       29.42F VSB 1/2 WCI   5
OSCODA         LGT SNOW  17  11  76 E3        29.61F
PELLSTON       CLOUDY    15   9  76 E12       29.61F WCI   2
ROGERS CITY    CLOUDY    15   6  67 SE3       29.64F
TRAVERSE CITY  LGT SNOW  18  13  80 E10       29.50F VSB 3/4 WCI   6
$$
MIZ007>008-015-132000-
EASTERN UPPER MICHIGAN

CITY           SKY/WX    TMP DP  RH WIND       PRES   REMARKS
KINROSS        MOSUNNY    5  -3  69 E9        29.65F WCI  -9
MACKINAC ISLAN LGT SNOW  15  11  85 E10G18    29.61F VSB 1   WCI   2
NEWBERRY       PTSUNNY    5   0  79 NE8       29.62F WCI  -8
S. S. MARIE    SUNNY      7  -3  64 SE7       29.65F WCI  -5
MUNISING         N/A     15  11  83 E10       29.61F WCI   2
$$
MIZ004>006-011>014-085-132000-
CENTRAL UPPER MICHIGAN

CITY           SKY/WX    TMP DP  RH WIND       PRES   REMARKS
MANISTIQUE     LGT SNOW  13   7  75 NE12      29.58S WCI   0
ESCANABA       SNOW      20  16  84 NE14      29.52F VSB 1/2 WCI   7
MENOMINEE      LGT SNOW  26  24  92 E21       29.44F VSB 3/4 WCI  12
SAWYER-GWINN   LGT SNOW  14  10  85 NE12      29.55S WCI   0
$$
MIZ001>003-009>011-084-132000-
WESTERN UPPER MICHIGAN

CITY           SKY/WX    TMP DP  RH WIND       PRES   REMARKS
IRON MOUNTAIN  SNOW      17  13  84 NE9       29.47S VSB 1/4 WCI   6
HOUGHTON         N/A     20  14  77 NE3       29.59S
COPPER HARBOR    N/A     22  14  71 VRB7      29.64S WCI  13
IRONWOOD       LGT SNOW  16  11  80 NE8       29.57R WCI   5
$$

ABBREVIATIONS USED IN REMARKS
   TC - TEMPERATURE IN CELSIUS
  WCI - WIND CHILL INDEX
   HX - HEAT INDEX
  VSB - VISIBILITY





USA.gov is the U.S. government's official web portal to all federal, state and local government web resources and services.